Location: Unspecified
(0.0000°N, 0.0000°E)
Time: 23:08:33
(UTC+00:00)

Amateur Radio Satellites - All Passes

Search period start: 24 October 2014 22:38
Search period end: 25 October 2014 22:38
Location: Unspecified, 0.0000°N, 0.0000°E

Satellite Date Start Highest point End Downlink Frequencies (MHz)
Time Altitude Azimuth
FUNcube-1 24 Oct 22:58:38 23:01:11 15° 258° (WSW) 23:03:44 145.950 - 145.970 MHz USB
KITSAT 1 24 Oct 22:59:37 23:07:12 46° 250° (WSW) 23:14:49 435.175 FM
UOSAT-12 24 Oct 23:26:12 23:27:24 11° 67° (ENE) 23:28:36 437.025 FM, 437.400 FM
SO-50 24 Oct 23:38:52 23:42:36 22° 248° (WSW) 23:46:20 436.795 FM
Oscar 19 25 Oct 00:26:07 00:30:00 22° 103° (ESE) 00:33:54 437.125 CW, 437.150 USB
JAS-1B 25 Oct 00:28:20 00:35:31 33° 107° (ESE) 00:43:35 435.800 - 435.900 CW/SSB
AO-27 25 Oct 00:45:57 00:47:23 11° 103° (ESE) 00:48:50 436.795 MHz FM
Sapphire 25 Oct 00:49:16 00:51:37 13° 110° (ESE) 00:53:59 437.095 MHz 1200 baud AX-25 AFSK
UOSAT-12 25 Oct 01:03:11 01:07:19 34° 248° (WSW) 01:11:24 437.025 FM, 437.400 FM
AO-Echo 25 Oct 01:07:49 01:12:28 32° 102° (ESE) 01:17:03 ?
PCSat 25 Oct 01:09:43 01:14:11 27° 110° (ESE) 01:18:39 145.825 MHz
Oscar 16 25 Oct 01:10:33 01:15:40 83° 102° (ESE) 01:20:49 437.025 USB, Beacon 2401.1428
Uribyol 2 25 Oct 01:30:07 01:35:03 46° 103° (ESE) 01:39:59 436.500 FM
ITAMSAT 1 25 Oct 01:36:03 01:41:04 51° 103° (ESE) 01:46:05 435.822 SSB
Gurwin Techsat 1B 25 Oct 01:55:14 02:00:06 37° 103° (ESE) 02:04:58 435.225 FM
PANSAT 25 Oct 01:59:31 02:03:17 52° 150° (SSE) 02:07:03 not established
Oscar 19 25 Oct 02:05:12 02:09:04 22° 283° (WNW) 02:12:58 437.125 CW, 437.150 USB
TMSAT-1 25 Oct 02:06:40 02:11:25 35° 103° (ESE) 02:16:11 436.925 FM
JAS-1B 25 Oct 02:18:24 02:25:34 37° 282° (WNW) 02:33:50 435.800 - 435.900 CW/SSB
AO-27 25 Oct 02:21:42 02:26:36 43° 283° (WNW) 02:31:31 436.795 MHz FM
Sapphire 25 Oct 02:29:46 02:34:47 40° 289° (WNW) 02:39:48 437.095 MHz 1200 baud AX-25 AFSK
AO-Echo 25 Oct 02:47:47 02:50:55 16° 283° (WNW) 02:54:02 ?
PCSat 25 Oct 02:53:27 02:57:19 20° 290° (WNW) 03:01:12 145.825 MHz
Uribyol 2 25 Oct 03:14:05 03:14:14 10° 283° (WNW) 03:14:23 436.500 FM
Gurwin Techsat 1B 25 Oct 03:37:14 03:39:47 14° 283° (WNW) 03:42:21 435.225 FM
PANSAT 25 Oct 03:40:25 03:43:23 21° 331° (NNW) 03:46:21 not established
AO-7 25 Oct 03:46:43 03:55:00 72° 106° (ESE) 04:03:20 29.400 - 29.500 MHz
TMSAT-1 25 Oct 03:48:12 03:51:03 15° 283° (WNW) 03:53:56 436.925 FM
JAS-2 25 Oct 04:05:38 04:11:01 21° 102° (ESE) 04:16:07 435.800 - 435.900 CW/SSB, 435.910 FM
Uosat F 25 Oct 04:30:42 04:35:29 46° 283° (WNW) 04:40:18 435.120 FM
Saudisat 1A 25 Oct 04:34:18 04:37:16 18° 112° (ESE) 04:40:14 436.775 MHz
OPAL 25 Oct 04:55:11 05:00:25 87° 256° (WSW) 05:05:36 ?
Hamsat 25 Oct 05:41:41 05:45:49 57° 281° (WNW) 05:50:02 145.90 MHz
AO-7 25 Oct 05:43:39 05:47:20 14° 287° (WNW) 05:51:03 29.400 - 29.500 MHz
JAS-2 25 Oct 05:48:25 05:55:46 47° 284° (WNW) 06:02:40 435.800 - 435.900 CW/SSB, 435.910 FM
Saudisat 1A 25 Oct 06:13:25 06:16:35 20° 292° (WNW) 06:19:45 436.775 MHz
STRAND 1 25 Oct 06:39:55 06:45:00 72° 257° (WSW) 06:50:06 ?
RS-15 25 Oct 06:41:51 06:50:22 23° 69° (ENE) 06:59:03 29.354 - 29.394 USB, Beacon 29.352 USB
SO-67 25 Oct 06:53:09 06:56:32 61° 281° (W) 06:59:57 435.3500 MHz FM
HO-68 25 Oct 08:13:12 08:20:03 49° 105° (ESE) 08:26:55 435.675 MHz FM
ISS 25 Oct 08:24:47 08:26:16 12° 126° (SE) 08:27:45 145.800 FM
RS-15 25 Oct 08:50:54 09:02:20 62° 249° (WSW) 09:14:18 29.354 - 29.394 USB, Beacon 29.352 USB
UKube-1 25 Oct 08:52:05 08:56:00 33° 102° (ESE) 08:59:54 145.840 MHz, 145.915 MHz
KITSAT 1 25 Oct 09:13:28 09:20:13 29° 110° (ESE) 09:26:55 435.175 FM
FUNcube-1 25 Oct 09:31:54 09:35:38 33° 102° (ESE) 09:39:22 145.950 - 145.970 MHz USB
Oscar 11 25 Oct 09:33:00 09:37:16 67° 282° (WNW) 09:41:34 145.825 FM, Beacon 2401.500 USB
ISS 25 Oct 10:00:15 10:02:45 20° 306° (NW) 10:05:15 145.800 FM
HO-68 25 Oct 10:02:58 10:07:24 18° 285° (WNW) 10:11:52 435.675 MHz FM
MaSat-1 25 Oct 10:08:24 10:10:28 27° 252° (WSW) 10:12:37 437.345 MHz
SO-50 25 Oct 10:11:31 10:15:30 34° 112° (ESE) 10:19:29 436.795 FM
ZACube-1 25 Oct 10:23:18 10:27:08 38° 282° (WNW) 10:31:00 437.345 MHz
KITSAT 1 25 Oct 11:08:06 11:15:16 35° 290° (WNW) 11:22:27 435.175 FM
UOSAT-12 25 Oct 11:34:17 11:37:25 19° 112° (ESE) 11:40:35 437.025 FM, 437.400 FM
SO-50 25 Oct 11:55:35 11:55:48 10° 293° (WNW) 11:56:01 436.795 FM
Oscar 16 25 Oct 12:08:16 12:10:36 13° 77° (ENE) 12:12:56 437.025 USB, Beacon 2401.1428
JAS-1B 25 Oct 12:41:39 12:47:50 33° 79° (E) 12:53:12 435.800 - 435.900 CW/SSB
Oscar 19 25 Oct 12:58:49 13:03:55 58° 78° (ENE) 13:08:58 437.125 CW, 437.150 USB
UOSAT-12 25 Oct 13:13:57 13:17:18 20° 293° (WNW) 13:20:41 437.025 FM, 437.400 FM
AO-27 25 Oct 13:18:06 13:22:38 31° 77° (ENE) 13:27:09 436.795 MHz FM
Sapphire 25 Oct 13:22:57 13:28:00 41° 71° (ENE) 13:33:03 437.095 MHz 1200 baud AX-25 AFSK
AO-Echo 25 Oct 13:36:44 13:41:27 72° 78° (ENE) 13:46:14 ?
Oscar 16 25 Oct 13:44:55 13:49:40 37° 257° (WSW) 13:54:25 437.025 USB, Beacon 2401.1428
PCSat 25 Oct 13:45:04 13:50:28 84° 71° (ENE) 13:55:52 145.825 MHz
PANSAT 25 Oct 13:46:44 13:50:29 54° 30° (NNE) 13:54:15 not established
Uribyol 2 25 Oct 14:04:52 14:10:01 66° 257° (WSW) 14:15:11 436.500 FM
ITAMSAT 1 25 Oct 14:11:04 14:16:11 60° 257° (WSW) 14:21:17 435.822 SSB
AO-7 25 Oct 14:25:56 14:29:10 13° 73° (ENE) 14:32:24 29.400 - 29.500 MHz
JAS-1B 25 Oct 14:32:49 14:38:03 22° 253° (WSW) 14:42:45 435.800 - 435.900 CW/SSB
Gurwin Techsat 1B 25 Oct 14:33:25 14:38:43 75° 258° (WSW) 14:44:00 435.225 FM
TMSAT-1 25 Oct 14:44:20 14:49:38 82° 258° (WSW) 14:54:56 436.925 FM
AO-27 25 Oct 14:58:44 15:01:52 16° 257° (WSW) 15:05:00 436.795 MHz FM
Sapphire 25 Oct 15:08:51 15:11:10 13° 250° (WSW) 15:13:30 437.095 MHz 1200 baud AX-25 AFSK
Uosat F 25 Oct 15:22:47 15:26:44 24° 77° (ENE) 15:30:41 435.120 FM
PANSAT 25 Oct 15:27:41 15:30:36 20° 209° (SSW) 15:33:31 not established
OPAL 25 Oct 15:51:09 15:53:24 13° 105° (ESE) 15:55:40 ?
AO-7 25 Oct 16:13:14 16:21:31 74° 254° (WSW) 16:29:45 29.400 - 29.500 MHz
Saudisat 1A 25 Oct 16:39:32 16:43:17 27° 68° (ENE) 16:47:01 436.775 MHz
Uosat F 25 Oct 17:01:42 17:05:15 20° 257° (WSW) 17:08:48 435.120 FM
JAS-2 25 Oct 17:21:43 17:27:00 80° 258° (WSW) 17:32:46 435.800 - 435.900 CW/SSB, 435.910 FM
OPAL 25 Oct 17:27:33 17:32:00 34° 284° (WNW) 17:36:29 ?
STRAND 1 25 Oct 17:35:32 17:38:49 17° 103° (ESE) 17:42:06 ?
Hamsat 25 Oct 17:49:06 17:53:11 44° 258° (WSW) 17:57:12 145.90 MHz
Saudisat 1A 25 Oct 18:20:34 18:22:36 13° 247° (WSW) 18:24:37 436.775 MHz
RS-15 25 Oct 18:26:11 18:33:13 18° 114° (ESE) 18:40:01 29.354 - 29.394 USB, Beacon 29.352 USB
SO-67 25 Oct 18:37:20 18:40:45 65° 79° (E) 18:44:08 435.3500 MHz FM
STRAND 1 25 Oct 19:13:24 19:17:44 28° 283° (WNW) 19:22:04 ?
HO-68 25 Oct 20:05:02 20:11:40 41° 75° (ENE) 20:18:15 435.675 MHz FM
RS-15 25 Oct 20:34:04 20:45:25 71° 290° (WNW) 20:56:20 29.354 - 29.394 USB, Beacon 29.352 USB
ZACube-1 25 Oct 20:59:41 21:01:50 13° 78° (ENE) 21:03:58 437.345 MHz
UKube-1 25 Oct 21:01:32 21:05:41 45° 78° (ENE) 21:09:50 145.840 MHz, 145.915 MHz
KITSAT 1 25 Oct 21:20:53 21:28:11 38° 70° (ENE) 21:35:28 435.175 FM
ISS 25 Oct 21:35:11 21:38:09 30° 234° (SW) 21:41:07 145.800 FM
FUNcube-1 25 Oct 21:41:50 21:46:19 52° 78° (ENE) 21:50:47 145.950 - 145.970 MHz USB
Oscar 11 25 Oct 21:42:19 21:46:32 48° 258° (WSW) 21:50:42 145.825 FM, Beacon 2401.500 USB
MaSat-1 25 Oct 21:47:21 21:51:49 70° 287° (WNW) 21:56:06 437.345 MHz
HO-68 25 Oct 21:53:55 21:59:01 21° 255° (WSW) 22:04:09 435.675 MHz FM
SO-50 25 Oct 22:23:59 22:28:50 70° 68° (ENE) 22:33:39 436.795 FM
